User: anonymous
Location: Holcomb Observatory
(44.4922°N, 73.1654°W)
Time: 14:29:41
(UTC-04:00)
Language:

Cosmos 1727 Rocket - Orbit

View from above orbital plane
View from above orbital plane
View from above satellite
View from above satellite

Ground track
Ground track

The orbit data is extracted from the following two-line orbital elements,

1 16511U 86008B   14232.11493802  .00000133  00000-0  12231-3 0  5586
2 16511 082.9417 265.2652 0022778 285.8116 135.4929 13.75769847434362
Epoch (UTC): 20 August 2014 02:45:30
Eccentricity: 0.0022778
inclination: 82.9417°
perigee height: 962 km
apogee height: 995 km
right ascension of ascending node: 265.2652°
argument of perigee: 285.8116°
revolutions per day: 13.75769847
mean anomaly at epoch: 135.4929°
orbit number at epoch: 43436

The dashed part of the orbit path shows where the satellite is in the earth's shadow,  

DLR